Location: Unspecified
(0.0000°N, 0.0000°E)
Time: 08:10:40
(UTC+00:00)

STRAND 1 - Visible Passes

Search period start: 21 May 2024 00:00
Search period end: 31 May 2024 00:00
Orbit: 765 x 777 km, 98.4° (Epoch: 20 May)

Date Brightness Start Highest point End Pass type
(mag) Time Alt. Az. Time Alt. Az. Time Alt. Az.
21 May ? 18:17:27 10° N 18:22:28 59° WNW 18:27:31 10° SSW visible
22 May ? 05:11:59 10° SE 05:15:41 20° ENE 05:19:21 10° NNE visible
23 May ? 18:47:30 10° NNW 18:51:40 26° WNW 18:55:52 10° SW visible
25 May ? 05:06:46 10° ESE 05:10:04 17° ENE 05:13:20 10° NE visible
25 May ? 19:19:44 10° WNW 19:20:51 11° WNW 19:21:58 10° W visible
26 May ? 18:41:38 10° NNW 18:46:03 30° WNW 18:50:29 10° SW visible
28 May ? 05:01:38 10° ESE 05:04:24 15° ENE 05:07:11 10° NE visible
28 May ? 19:12:59 10° NW 19:15:13 13° WNW 19:17:26 10° WSW visible
29 May ? 18:35:47 10° NNW 18:40:23 35° WNW 18:45:01 10° SW visible
30 May ? 05:29:00 10° SE 05:33:34 34° ENE 05:38:07 10° NNE visible
